SB KEPS @ AMSAT $ORB14282.N 2Line Orbital Elements 14282.AMSAT HR AMSAT ORBITAL ELEMENTS FOR AMATEUR SATELLITES IN NASA FORMAT FROM WA5QGD FORT WORTH,TX October 9, 2014 BID: ORB14282.N DECODE 2-LINE ELSETS WITH THE FOLLOWING KEY: 1 AAAAAU 00 0 0 BBBBB.BBBBBBBB .CCCCCCCC 00000-0 00000-0 0 DDDZ 2 AAAAA EEE.EEEE FFF.FFFF GGGGGGG HHH.HHHH III.IIII JJ.JJJJJJJJKKKKKZ KEY: A-CATALOGNUM B-EPOCHTIME C-DECAY D-ELSETNUM E-INCLINATION F-RAAN G-ECCENTRICITY H-ARGPERIGEE I-MNANOM J-MNMOTION K-ORBITNUM Z-CHECKSUM TO ALL RADIO AMATEURS BT AO-07 1 07530U 74089B 14281.05437147 -.00000039 00000-0 25663-4 0 912 2 07530 101.4870 259.2235 0012370 074.9812 327.2191 12.53607745825662 FO-29 1 24278U 96046B 14280.03284851 -.00000027 00000-0 88178-5 0 4929 2 24278 098.5157 278.4578 0350427 007.6215 060.0834 13.53032173895790 SO-33 1 25509U 98061B 14282.17715854 .00000642 00000-0 11615-3 0 8572 2 25509 031.4308 234.4668 0348917 033.1503 082.9741 14.29671943833474 RS-22 1 27939U 03042A 14282.09410831 .00000796 00000-0 15547-3 0 9360 2 27939 097.8212 090.6565 0014602 105.9273 031.9380 14.65393087589408 HO-68 1 36122U 09072B 14282.20442547 -.00000001 00000-0 11059-3 0 214 2 36122 100.2351 330.5425 0007096 340.1904 061.8440 13.16318783231430 AO-73 1 39444U 13066AE 14281.24630408 .00003642 00000-0 48854-3 0 2780 2 39444 097.7588 348.0061 0060131 235.5026 124.0498 14.78714250 46171 EO-79 1 40025U 14033R 14282.26768261 .00003735 00000-0 43745-3 0 3276 2 40025 097.9717 177.0959 0012181 290.6181 069.3687 14.85594383 16524 UO-11 1 14781U 84021B 14281.75578463 .00000989 00000-0 13181-3 0 6302 2 14781 097.8389 339.5983 0009420 163.6495 196.5024 14.81788245644780 AO-16 1 20439U 90005D 14281.05523299 .00000169 00000-0 78589-4 0 1431 2 20439 098.5150 216.3027 0011047 179.6786 241.1902 14.32399475290643 LO-19 1 20442U 90005G 14281.78187545 .00000220 00000-0 96637-4 0 795 2 20442 098.4861 217.3292 0012258 167.2458 192.9038 14.32598932290949 AO-27 1 22825U 93061C 14281.84171838 .00000219 00000-0 10255-3 0 7912 2 22825 098.6744 227.3751 0007654 331.2499 081.9197 14.29756954 97024 IO-26 1 22826U 93061D 14281.45290215 .00000254 00000-0 11553-3 0 5482 2 22826 098.6686 227.1897 0008064 323.9746 036.0892 14.30060998 97108 GO-32 1 25397U 98043D 14281.48168682 .00000117 00000-0 69847-4 0 4700 2 25397 098.4839 235.3188 0001231 038.9000 075.6814 14.23467952843982 NO-44 1 26931U 01043C 14280.98868566 .00000098 00000-0 69954-4 0 7240 2 26931 067.0505 107.5680 0007397 275.3019 084.7238 14.30161695679736 SO-50 1 27607U 02058C 14282.14505959 .00001627 00000-0 26061-3 0 5374 2 27607 064.5574 244.9114 0061261 340.4927 019.3831 14.73984140634273 CO-55 1 27844U 03031E 14282.01490019 .00000251 00000-0 13467-3 0 435 2 27844 098.6993 289.1539 0008677 309.7551 103.9918 14.21576956584752 CO-57 1 27848U 03031J 14281.76329372 .00000308 00000-0 16171-3 0 9867 2 27848 098.7087 288.6791 0008651 318.2955 094.4203 14.21254481584634 AO-51 1 28375U 04025K 14281.07806061 .00000371 00000-0 12275-3 0 9632 2 28375 098.2623 224.2029 0083058 012.1397 348.1768 14.41449686540165 CP3 1 31129U 07012N 14281.64789782 .00002025 00000-0 45155-3 0 8691 2 31129 097.9478 253.9684 0098434 018.4551 035.6272 14.54936536396538 CO-65 1 32785U 08021C 14282.13861389 .00002273 00000-0 26792-3 0 851 2 32785 097.6857 329.6300 0014266 168.3930 249.0482 14.85643326348940 PRISM 1 33493U 09002B 14282.28126338 .00004787 00000-0 49776-3 0 3797 2 33493 098.2553 102.8851 0018552 072.5723 039.8722 14.90264071309162 SOHLA-1 1 33496U 09002E 14281.80583645 .00000801 00000-0 13912-3 0 4848 2 33496 098.1837 043.1089 0005511 233.3036 246.6890 14.70929488306219 TISAT-1 1 36799U 10035E 14282.16994589 .00002924 00000-0 33855-3 0 6262 2 36799 098.0192 015.0572 0012638 312.6296 110.8566 14.86250285229645 STUDSAT 1 36801U 10035G 14282.17799868 .00017752 00000-0 14569-2 0 9055 2 36801 098.0391 025.5039 0007192 271.1552 150.0904 14.99257449230194 ALMASAT-1 1 38078U 12006B 14282.10798738 .00029766 33471-5 59372-3 0 1775 2 38078 069.4661 143.3023 0573718 240.1470 199.2848 14.55806864138184 XATCOBEO 1 38082U 12006F 14243.34478676 .13583328 43697-5 37939-3 0 5637 2 38082 069.3815 097.0364 0033293 225.1799 135.4582 16.41261006136239 CUBEBUG-1 1 39153U 13018D 14282.10540724 .00001520 00000-0 21731-3 0 5546 2 39153 098.0365 002.1573 0017270 347.8125 012.2665 14.78033866 78383 ESTCUBE-1 1 39161U 13021C 14282.09261203 .00001049 00000-0 18199-3 0 5549 2 39161 098.0920 002.1301 0010386 041.0587 319.1399 14.70249779 76334 DUCHIFAT-1 1 40021U 14033M 14282.25674247 .00005113 00000-0 59297-3 0 3339 2 40021 097.9684 177.1292 0012137 292.2418 067.7444 14.85825001 16512 NANOSATCBR1 1 40024U 14033Q 14282.26484595 .00004534 00000-0 52855-3 0 3247 2 40024 097.9658 177.0964 0011471 288.5619 071.4298 14.85681701 16518 DTUSAT-2 1 40030U 14033W 14282.36276030 .00003731 00000-0 44113-3 0 3200 2 40030 097.9661 177.1107 0010847 281.8488 078.1457 14.85218243 16535 ANTELSAT 1 40034U 14033AA 14282.24240985 .00002718 00000-0 43386-3 0 3307 2 40034 097.9677 174.5945 0060373 202.0853 157.7745 14.71492568 16372 MET-2/21 1 22782U 93055A 14281.44717972 .00000067 00000-0 47211-4 0 1938 2 22782 082.5476 083.4362 0021120 308.7956 106.0735 13.83745461 65785 OKEAN-4 1 23317U 94066A 14282.17655370 .00000815 00000-0 90591-4 0 6766 2 23317 082.5373 321.0474 0021988 083.9129 335.6270 14.85779011 80037 NOAA-14 1 23455U 94089A 14282.43356353 .00000113 00000-0 82431-4 0 9377 2 23455 098.7722 003.8102 0010397 077.7149 033.5136 14.13990366 20099 NOAA-15 1 25338U 98030A 14282.46901249 .00000212 00000-0 10867-3 0 3740 2 25338 098.7611 276.1525 0010991 170.8817 302.5168 14.25481144853123 RESURS 1 25394U 98043A 14282.01729905 .00000059 00000-0 43345-4 0 7802 2 25394 098.4289 241.6754 0000279 334.2859 067.3378 14.24403431844529 FENGYUN1 1 25730U 99025A 14280.92615610 .00002696 00000-0 14878-2 0 2689 2 25730 098.9203 241.3784 0022541 145.8417 247.3734 14.12199832793439 OKEAN-0 1 25860U 99039A 14281.02580054 .00000846 00000-0 13207-3 0 3843 2 25860 098.0586 244.3161 0001886 092.5395 311.3166 14.75443376818794 NOAA-16 1 26536U 00055A 14282.43792517 .00000143 00000-0 10086-3 0 8734 2 26536 098.9776 343.2259 0010165 216.2927 143.7556 14.13041760724247 NOAA-17 1 27453U 02032A 14282.45273582 .00000214 00000-0 10909-3 0 7639 2 27453 098.3217 276.1876 0011679 192.8480 167.2405 14.24788524638957 NOAA-18 1 28654U 05018A 14282.47571288 .00000100 00000-0 80111-4 0 2852 2 28654 099.1618 264.3413 0013424 305.6873 163.3947 14.12075494483690 NOAA-19 1 33591U 09005A 14282.46352666 .00000208 00000-0 13866-3 0 4183 2 33591 098.9565 227.2151 0014512 153.6416 339.7390 14.11777637292117 HUBBLE 1 20580U 90037B 14280.68957903 .00003105 00000-0 19680-3 0 1309 2 20580 028.4715 017.3693 0003407 054.4856 076.5281 15.05877643141695 ISS 1 25544U 98067A 14282.56268867 .00009696 00000-0 16774-3 0 2198 2 25544 051.6441 252.6474 0002603 243.7912 116.3328 15.50304420909075 CO-58 1 28895U 05043F 14281.48156275 .00001134 00000-0 23415-3 0 8938 2 28895 097.8268 117.4422 0017545 017.5963 342.5844 14.62075955476807 FALCON 1 30776U 07006E 14281.97774422 .00009527 00000-0 46125-3 0 9785 2 30776 035.4269 128.5416 0002542 254.4904 218.7078 15.17880658418029 MAST 1 31126U 07012K 14281.79413464 .00001440 00000-0 32325-3 0 1738 2 31126 097.9285 256.8477 0091620 000.9532 116.2326 14.55453803396918 CAPE1 1 31130U 07012P 14281.44205320 .00001967 00000-0 44107-3 0 1796 2 31130 097.9491 253.3114 0099068 020.5942 339.9206 14.54668537396270 COMPASS 1 32787U 08021E 14282.13543077 .00003717 00000-0 40497-3 0 687 2 32787 097.6882 332.3634 0014390 159.6369 200.5425 14.88508916349137 AAUSAT2 1 32788U 08021F 14281.14278675 .00004599 00000-0 49033-3 0 557 2 32788 097.6898 332.5285 0013851 160.5564 199.6185 14.89270607349054 DO-64 1 32789U 08021G 14282.14597905 .00007034 00000-0 65221-3 0 991 2 32789 097.7093 341.1478 0012764 141.9508 270.8019 14.94694997349513 CO-66 1 32791U 08021J 14282.13102739 .00003001 00000-0 33993-3 0 508 2 32791 097.6876 330.8782 0014951 163.9178 196.2516 14.87045231348980 RS-30 1 32953U 08025A 14282.06423130 -.00000003 00000-0 -89285-4 0 3707 2 32953 082.4999 130.4168 0018163 268.4567 206.2133 12.43051728289408 METEOR-M 1 35865U 09049A 14282.16277837 .00000069 00000-0 50525-4 0 9746 2 35865 098.5376 326.0519 0003545 120.5489 307.1200 14.21935718262531 RS-38 1 35869U 09049E 14282.10186148 .00000033 00000-0 34103-4 0 8821 2 35869 098.5295 325.7389 0005750 121.0929 291.7606 14.22231968262569 JUGNU 1 37839U 11058B 14281.37384411 .00000516 00000-0 13353-3 0 7125 2 37839 019.9616 288.9300 0018991 150.8082 356.9036 14.12346429154576 SRMSAT 1 37841U 11058D 14281.37989167 .00000474 00000-0 11621-3 0 7148 2 37841 019.9723 310.4895 0012052 086.5065 026.9072 14.10381868154350 RAX-2 1 37853U 11061D 14282.16390796 .00009263 00000-0 61816-3 0 9303 2 37853 101.7044 006.2344 0211598 086.7465 331.7733 14.90927911159630 AUBIESAT 1 37854U 11061E 14282.17858573 .00009710 00000-0 62620-3 0 9296 2 37854 101.7085 008.5315 0208943 083.2205 333.7932 14.92428856159700 HRBE 1 37855U 11061F 14282.14574515 .00009259 00000-0 60536-3 0 9466 2 37855 101.7090 007.6614 0211488 084.9535 277.5772 14.91637207159653 RS-39 1 38051U 11062C 14282.64026108 .01666951 00000-0 25424-2 0 41 2 38051 051.6140 357.0326 0008993 347.7568 012.3662 16.03575995152111 E-STAR 1 38079U 12006C 14281.79925936 .00238222 15906-4 20874-2 0 68 2 38079 069.4435 048.2760 0289232 190.0003 294.0280 15.30355844140699 GOLIAT 1 38085U 12006J 14282.59388317 .00226331 00000-0 21942-2 0 4390 2 38085 069.4486 056.2867 0320218 193.3311 165.9711 15.22092444140541 HORYU-2 1 38340U 12025D 14281.41930851 .00002998 00000-0 47551-3 0 9897 2 38340 098.2744 240.6305 0011919 171.9300 188.2092 14.72899576128465 RS-40 1 38735U 12041C 14281.49352194 .00000024 00000-0 10000-3 0 7074 2 38735 082.4762 216.8870 0017749 011.7518 348.3976 12.42561369 99658 PROITERES 1 38756U 12047B 14282.62973840 .00001894 00000-0 28041-3 0 2947 2 38756 098.2264 012.7954 0013013 023.8946 336.3371 14.75151852112043 BEESAT-3 1 39134U 13015E 14282.08325564 .00006633 00000-0 45101-3 0 7327 2 39134 064.8739 137.7474 0035283 287.9443 071.7833 15.06625842 80815 BEESAT-2 1 39136U 13015G 14282.66365781 .00012161 00000-0 82119-3 0 7174 2 39136 064.8738 136.7733 0035374 287.4681 072.3075 15.05847544 80889 LO-75 1 39382U 13064C 14282.50483389 .00539363 00000-0 30733-2 0 4538 2 39382 040.4832 115.2970 0023914 327.9969 031.9846 15.77492134468728 ZACUBE-1 1 39417U 13066B 14282.15915744 .00002164 00000-0 29478-3 0 4343 2 39417 097.7642 348.8216 0061025 232.4104 127.1557 14.78446895 47536 TRITON-1 1 39427U 13066M 14282.14048366 .00001527 00000-0 26261-3 0 2864 2 39427 097.7520 342.2997 0116546 247.4346 111.4492 14.65662669 47088 DELFIN3XT 1 39428U 13066N 14282.08416721 .00002486 00000-0 43344-3 0 2903 2 39428 097.7512 341.1341 0126616 250.6083 108.1399 14.63738867 46994 GOMX-1 1 39430U 13066Q 14282.10616668 .00001087 00000-0 21460-3 0 8874 2 39430 097.7456 337.9881 0154726 259.6522 098.7205 14.57094479 46803 MO-76 1 39436U 13066W 14282.03734753 .00017896 00000-0 17205-2 0 3688 2 39436 097.7711 354.0227 0024600 230.4985 129.4059 14.92843980 47846 LO-74 1 39440U 13066AA 14282.10357917 .00001829 00000-0 27514-3 0 2812 2 39440 097.7598 346.1917 0082817 237.6600 121.6572 14.73367474 47357 PUCPSAT-1 1 39442U 13066AC 14282.14437941 .00003736 00000-0 42315-3 0 2808 2 39442 097.7702 352.8247 0033430 229.1181 130.7138 14.86607063 46558 SHINAISAT 1 39572U 14009A 14281.54029251 .00167579 00000-0 68171-3 0 3348 2 39572 065.0070 006.0859 0021473 286.3217 073.5579 15.85137857 34968 TEIKYOSAT 1 39576U 14009E 14282.60723334 .00474253 00000-0 81779-3 0 3791 2 39576 065.0002 357.0667 0019757 295.2331 064.7291 16.01568832 35224 CO-77 1 39577U 14009F 14244.78324653 .10543803 76292-5 32273-3 0 3795 2 39577 064.9920 123.7668 0014904 269.7208 091.1897 16.43552757 29380 SPROUT 1 39770U 14029E 14282.11734726 .00001197 00000-0 15430-3 0 1570 2 39770 097.8754 017.5420 0008792 304.1275 055.9104 14.82853102 20421 POPSAT-HIP1 1 40028U 14033U 14282.54923881 .00003726 00000-0 43193-3 0 3447 2 40028 097.9744 177.4028 0013397 285.2128 074.8121 14.85432261 16552 EO-80 1 40032U 14033Y 14282.43174194 .00003725 00000-0 43456-3 0 3345 2 40032 097.9696 177.1867 0011158 280.1827 079.8644 14.85195253 16680 VELOX-1 1 40057U 14034E 14282.43212204 .00003452 00000-0 52912-3 0 3308 2 40057 098.2427 351.3504 0010876 326.1786 033.8728 14.74292409 14914 DAURIA DX 1 1 40071U 14037C 14282.37978338 .00001596 00000-0 22032-3 0 3023 2 40071 098.3914 338.1419 0008168 333.9597 026.1199 14.79655784 13692 UKUBE-1 1 40074U 14037F 14282.39033847 .00003415 00000-0 45161-3 0 3047 2 40074 098.3927 338.3013 0004675 351.8306 008.2820 14.80671544 13705 CHASQUI-1 1 40117U 98067ET 14282.31380635 .00094511 00000-0 12951-2 0 1799 2 40117 051.6445 252.9402 0004096 132.8743 007.7971 15.56588335 8010 /EX
